Regional Weather Roundup
Issued by NWS Raleigh/Durham, NC

Home | Current Version | Previous Version | Text Only | Print | Product List | Glossary On
Versions: 1 2 3 4 5 6 7 8 9 10 11 12 13 14 15 16 17 18 19 20 21 22 23 24 25 26 27
000
ASUS42 KRAH 200610
RWRRAH
NORTH CAROLINA WEATHER ROUNDUP
NATIONAL WEATHER SERVICE RALEIGH NC
200 AM EDT SUN APR 20 2014

NOTE: "FAIR" INDICATES FEW OR NO CLOUDS BELOW 12,000 FEET WITH NO
SIGNIFICANT WEATHER AND/OR OBSTRUCTIONS TO VISIBILITY.

NCZ001-053-055-056-065-067-200700-
WESTERN NORTH CAROLINA

CITY           SKY/WX    TMP DP  RH WIND       PRES   REMARKS
ASHEVILLE      FAIR      46  45  96 NW5       30.23F
JEFFERSON      FAIR      47  34  61 CALM      30.25F
MORGANTON      FAIR      51  51 100 N6        30.27F
HICKORY        FAIR      50  48  93 CALM      30.21F
RUTHERFORDTON  MOCLDY    49  48  97 NW6       30.22F
MOUNT AIRY     FAIR      52  42  68 N5        30.24S
BOONE          FAIR      43  41  92 CALM      30.25F
$$

NCZ021-022-025-041-071-084-088-200700-
CENTRAL NORTH CAROLINA

CITY           SKY/WX    TMP DP  RH WIND       PRES   REMARKS
CHARLOTTE      LGT RAIN  51  47  86 NE9       30.19F
GREENSBORO     MOCLDY    53  42  66 NE9       30.22F
WINSTON-SALEM  FAIR      53  42  66 NE7       30.24F
RALEIGH-DURHAM CLOUDY    52  40  63 N8        30.21S
FORT BRAGG     FAIR      51  44  77 N9        30.14F
FAYETTEVILLE   CLOUDY    51  43  74 N13       30.14F
CHAPEL HILL    CLOUDY    53  42  66 N7        30.21F
BURLINGTON     MOCLDY    53  42  66 N9        30.21F
LAURINBURG     CLOUDY    50  42  74 NE16      30.13F
$$

NCZ011-015-027-028-043-044-047-080-103-200700-
NORTHEASTERN NORTH CAROLINA

CITY           SKY/WX    TMP DP  RH WIND       PRES   REMARKS
ROCKY MT-WILSO MOCLDY    50  45  83 CALM      30.19F
GREENVILLE     LGT RAIN  48  45  87 NE8       30.18F
WASHINGTON     CLOUDY    48  44  85 NE8       30.16F
ELIZABETH CITY LGT RAIN  52  44  74 NE15      30.19F
MANTEO         DRIZZLE   51  49  93 NE17G24   30.16F
CAPE HATTERAS  LGT RAIN  53  53 100 NE15G26   30.09F FOG
$$

NCZ078-087-090-091-093-098-101-200700-
SOUTHEASTERN NORTH CAROLINA

CITY           SKY/WX    TMP DP  RH WIND       PRES   REMARKS
LUMBERTON      LGT RAIN  49  47  93 NE16G23   30.11F
GOLDSBORO      CLOUDY    50  46  86 NE12G21   30.13F
KINSTON        DRIZZLE   49  46  90 N14G23    30.15F
KENANSVILLE    DRIZZLE   51  46  84 NE7       30.13S
NEW BERN       CLOUDY    53  50  89 NE10      30.13F
CHERRY POINT   CLOUDY    53  49  86 NE17G25   30.11S
BEAUFORT       CLOUDY    55  52  89 NE23G31   30.07F
JACKSONVILLE   LGT RAIN  51  51 100 N13       30.09F
WILMINGTON     CLOUDY    53  50  89 NE20G30   30.05F
$$




USA.gov is the U.S. government's official web portal to all federal, state and local government web resources and services.